VK1ET-13 Weather Reports


time (UTC)temp
F
wind
direction
speed
knots
gust
knots
rain 1hr
in
rain 24hr
in
rain mn
in
humidity
%
barometer
mb
20260504231525 58 313 7.0 13.0 0.00 0.00 0.00 76 1018.0
20260504230534 57 311 4.3 9.6 0.00 0.00 0.00 81 1018.2
20260504225524 57 312 4.3 8.7 0.00 0.00 0.00 77 1018.2
20260504224532 56 322 4.3 11.3 0.00 0.00 0.00 83 1018.4
20260504223520 56 339 4.3 9.6 0.00 0.00 0.00 82 1018.5
20260504222529 57 333 2.6 5.2 0.00 0.00 0.00 80 1018.5
20260504221531 55 337 1.7 4.3 0.00 0.00 0.00 82 1018.4
20260504220526 55 342 1.7 5.2 0.00 0.00 0.00 81 1018.2
20260504215536 55 320 2.6 5.2 0.00 0.00 0.00 81 1017.9
20260504214523 54 325 1.7 3.5 0.00 0.00 0.00 82 1017.9
20260504213532 54 311 0.9 2.6 0.00 0.00 0.00 83 1017.7
20260504212521 53 337 1.7 4.3 0.00 0.00 0.00 85 1017.5
20260504211537 52 197 0.9 3.5 0.00 0.00 0.00 86 1017.4
20260504210518 52 76 1.7 2.6 0.00 0.00 0.00 87 1017.3
20260504205527 53 120 0.9 1.7 0.00 0.00 0.00 83 1017.2
20260504204517 54 288 2.6 5.2 0.00 0.00 0.00 82 1016.9
20260504203525 54 275 2.6 6.1 0.00 0.00 0.00 81 1016.9
20260504202535 54 268 2.6 4.3 0.00 0.00 0.00 81 1016.8
20260504201523 54 277 2.6 4.3 0.00 0.00 0.00 81 1016.6
20260504200548 54 274 3.5 5.2 0.00 0.00 0.00 80 1016.4
20260504195521 54 279 5.2 8.7 0.00 0.00 0.00 81 1016.3
20260504194530 54 276 4.3 7.8 0.00 0.00 0.00 81 1016.2
20260504193519 54 273 4.3 6.1 0.00 0.00 0.00 81 1016.0
20260504192528 54 278 3.5 5.2 0.00 0.00 0.00 81 1015.7
20260504191543 54 275 3.5 7.8 0.00 0.00 0.00 81 1015.6
20260504190525 54 310 6.1 11.3 0.00 0.00 0.00 80 1015.6
20260504185535 54 287 4.3 7.8 0.00 0.00 0.00 80 1015.3
20260504184523 54 301 5.2 8.7 0.00 0.00 0.00 81 1015.3
20260504183537 54 291 4.3 8.7 0.00 0.00 0.00 81 1015.1
20260504182520 54 294 4.3 9.6 0.00 0.00 0.00 81 1015.1
20260504181529 55 298 4.3 7.8 0.00 0.00 0.00 81 1015.1
20260504180517 54 290 4.3 6.1 0.00 0.00 0.00 82 1015.2
20260504175526 55 295 4.3 9.6 0.00 0.00 0.00 82 1015.1
20260504174536 55 303 5.2 8.7 0.00 0.00 0.00 82 1015.3
20260504173522 55 299 5.2 8.7 0.00 0.00 0.00 81 1015.0
20260504172532 55 290 5.2 8.7 0.00 0.00 0.00 82 1014.9
20260504171529 55 292 4.3 10.4 0.00 0.00 0.00 82 1015.0
20260504170530 54 301 5.2 8.7 0.00 0.00 0.00 83 1015.1
20260504150537 51 342 0.9 3.5 0.00 0.00 0.00 97 1015.9
20260504140521 52 338 1.7 3.5 0.00 0.00 0.00 98 1016.2
20260504130534 54 338 0.9 3.5 0.00 0.00 0.00 98 1016.6
20260504110520 53 9 0.9 2.6 0.00 0.00 0.00 96 1016.9
20260504100542 54 24 0.0 2.6 0.00 0.00 0.00 94 1016.1
20260504081533 57 349 1.7 3.5 0.00 0.00 0.00 89 1015.0
20260504080521 57 318 0.9 3.5 0.00 0.00 0.00 90 1014.8
20260504050529 60 321 3.5 7.8 0.00 0.00 0.00 89 1013.8
20260504045538 60 325 1.7 4.3 0.00 0.00 0.00 89 1013.7
20260504044521 60 341 2.6 6.1 0.00 0.00 0.00 90 1013.8
20260504043530 59 5 1.7 5.2 0.00 0.00 0.00 93 1013.7
20260504042519 60 344 2.6 5.2 0.00 0.00 0.00 93 1013.8
20260504041528 60 300 2.6 7.8 0.00 0.00 0.00 92 1013.8
20260504040516 60 319 3.5 8.7 0.00 0.00 0.00 90 1013.7
20260504035524 61 327 4.3 9.6 0.00 0.00 0.00 91 1013.7
20260504034535 61 295 5.2 10.4 0.00 0.00 0.00 91 1013.7
20260504033522 61 298 3.5 7.0 0.00 0.00 0.00 92 1013.7
20260504032531 61 300 5.2 11.3 0.00 0.00 0.00 93 1013.8
20260504031520 62 295 3.5 7.0 0.00 0.00 0.00 95 1013.7
20260504030535 62 303 4.3 8.7 0.00 0.00 0.00 95 1013.7
20260504025517 62 302 5.2 8.7 0.00 0.00 0.00 95 1013.7
20260504024526 62 317 4.3 8.7 0.00 0.00 0.00 95 1013.7
20260504023535 62 328 3.5 7.8 0.00 0.00 0.00 95 1013.8
20260504022523 62 324 3.5 7.8 0.00 0.00 0.00 94 1014.1
20260504021533 63 325 3.5 7.0 0.00 0.00 0.00 95 1014.2
20260504020522 62 315 3.5 8.7 0.00 0.00 0.00 96 1014.4
20260504015530 62 300 3.5 7.8 0.00 0.00 0.00 96 1014.6
20260504014519 62 326 3.5 10.4 0.00 0.00 0.00 96 1014.7
20260504013527 62 346 2.6 5.2 0.00 0.00 0.00 95 1014.7
20260504012516 62 324 4.3 9.6 0.00 0.00 0.00 96 1014.9
20260504011526 62 318 4.3 9.6 0.00 0.00 0.00 96 1015.1
20260504010536 62 321 4.3 8.7 0.00 0.00 0.00 96 1015.1
20260504005530 62 337 6.1 14.8 0.00 0.00 0.00 96 1015.0
20260504004533 62 328 4.3 9.6 0.00 0.00 0.00 96 1015.0
20260504003521 62 342 5.2 11.3 0.00 0.00 0.00 96 1015.2
20260504002531 62 339 6.1 12.2 0.00 0.00 0.00 96 1015.3
20260504001519 62 335 6.1 11.3 0.00 0.00 0.00 96 1015.2
20260504000529 62 348 7.0 13.9 0.00 0.00 0.00 96 1015.1
20260503235537 62 347 6.1 14.8 0.00 0.00 0.00 97 1015.1
20260503234525 62 347 7.8 15.6 0.00 0.00 0.00 98 1014.9
20260503233535 62 336 7.0 18.2 0.00 0.00 0.00 98 1015.2
20260503232531 62 329 6.1 11.3 0.00 0.00 0.00 98 1015.1